Location: Newark
(49.4569°N, 2.2158°E)
Time: 13:35:08
(UTC+00:00)

LilacSat-2 - Visible Passes

Search period start: 18 February 2020 00:00
Search period end: 28 February 2020 00:00
Orbit: 512 x 536 km, 97.5° (Epoch: 17 February)

Date Brightness Start Highest point End Pass type
(mag) Time Alt. Az. Time Alt. Az. Time Alt. Az.
18 Feb ? 05:25:35 10° NNE 05:29:12 42° E 05:32:48 10° S visible
18 Feb ? 17:46:05 10° SW 17:48:52 19° W 17:51:39 10° NW visible
19 Feb ? 05:13:29 10° NNE 05:16:54 31° E 05:20:17 10° SSE visible
20 Feb ? 05:01:29 10° NE 05:04:34 23° E 05:07:39 10° SSE visible
21 Feb ? 04:49:36 10° NE 04:52:14 18° E 04:54:51 10° SE visible
22 Feb ? 04:37:57 10° ENE 04:39:52 13° E 04:41:47 10° ESE visible
22 Feb ? 06:10:44 10° N 06:14:28 59° WNW 06:18:12 10° SSW visible
23 Feb ? 05:58:26 10° NNE 06:02:14 81° WNW 06:06:03 10° SSW visible
24 Feb ? 05:46:11 10° NNE 05:50:00 74° ESE 05:53:48 10° S visible
24 Feb ? 18:08:22 10° WSW 18:09:49 12° W 18:11:18 10° WNW visible
25 Feb ? 05:34:00 10° NNE 05:37:44 53° E 05:41:28 10° S visible
25 Feb ? 17:55:05 10° SW 17:57:27 16° W 17:59:50 10° NW visible
26 Feb ? 05:21:52 10° NNE 05:25:27 39° E 05:29:02 10° SSE visible
27 Feb ? 05:09:47 10° NE 05:13:09 29° E 05:16:30 10° SSE visible
